When you browse on this site, cookies collect data to enhance your experience and personalize the content and advertising you see.
Visit our Privacy Policy to learn more. By continuing to use the site, you agree to this use of cookies and data.
  • In Spain
  • List of Countries
  • For 7 days
  • Water Temperature
  • Satellite Maps
  • Weather Map
  • Weather Widgets
  • user-avatar
    Login

    Hourly Weather Ahmadabad

    Today, 22 February, Friday

    Time Temperature Precipitation Wind Pressure Humidity
    00:00 +24°C° 0 mm 2 mps 757 mmHg 70%
    01:00 +24°C° 0 mm 2 mps 757 mmHg 72%
    02:00 +24°C° 0 mm 1 mps 757 mmHg 73%
    03:00 +23°C° 0 mm 1 mps 757 mmHg 74%
    04:00 +23°C° 0 mm 1 mps 756 mmHg 75%
    05:00 +23°C° 0 mm 1 mps 756 mmHg 76%
    06:00 +23°C° 0 mm 1 mps 757 mmHg 73%
    07:00 +24°C° 0 mm 2 mps 757 mmHg 70%
    08:00 +25°C° 0 mm 2 mps 757 mmHg 67%
    09:00 +27°C° 0 mm 2 mps 758 mmHg 59%
    10:00 +29°C° 0 mm 2 mps 758 mmHg 51%
    11:00 +31°C° 0 mm 3 mps 758 mmHg 43%
    12:00 +33°C° 0 mm 3 mps 757 mmHg 37%
    13:00 +35°C° 0 mm 3 mps 756 mmHg 32%
    14:00 +36°C° 0 mm 3 mps 756 mmHg 26%
    15:00 +35°C° 0 mm 3 mps 755 mmHg 26%
    16:00 +35°C° 0 mm 4 mps 755 mmHg 26%
    17:00 +35°C° 0 mm 4 mps 755 mmHg 25%
    18:00 +33°C° 0 mm 4 mps 755 mmHg 29%
    19:00 +30°C° 0 mm 4 mps 756 mmHg 32%
    20:00 +28°C° 0 mm 4 mps 756 mmHg 35%
    21:00 +27°C° 0 mm 3 mps 756 mmHg 37%
    22:00 +26°C° 0 mm 3 mps 756 mmHg 39%
    23:00 +26°C° 0 mm 3 mps 757 mmHg 41%

    Tomorrow, 23 February, Saturday

    Time Temperature Precipitation Wind Pressure Humidity
    00:00 +25°C° 0 mm 3 mps 756 mmHg 43%
    01:00 +25°C° 0 mm 3 mps 756 mmHg 44%
    02:00 +24°C° 0 mm 2 mps 756 mmHg 46%
    03:00 +24°C° 0 mm 3 mps 755 mmHg 45%
    04:00 +24°C° 0 mm 3 mps 755 mmHg 44%
    05:00 +24°C° 0 mm 3 mps 755 mmHg 43%
    06:00 +25°C° 0 mm 4 mps 755 mmHg 41%
    07:00 +25°C° 0 mm 4 mps 756 mmHg 38%
    08:00 +26°C° 0 mm 5 mps 756 mmHg 36%
    09:00 +28°C° 0 mm 5 mps 756 mmHg 32%
    10:00 +30°C° 0 mm 5 mps 756 mmHg 29%
    11:00 +33°C° 0 mm 5 mps 756 mmHg 26%
    12:00 +34°C° 0 mm 4 mps 755 mmHg 23%
    13:00 +35°C° 0 mm 3 mps 754 mmHg 21%
    14:00 +36°C° 0 mm 2 mps 754 mmHg 19%
    15:00 +36°C° 0 mm 2 mps 753 mmHg 18%
    16:00 +36°C° 0 mm 2 mps 753 mmHg 18%
    17:00 +36°C° 0 mm 2 mps 753 mmHg 17%
    18:00 +34°C° 0 mm 2 mps 753 mmHg 19%
    19:00 +31°C° 0 mm 3 mps 753 mmHg 21%
    20:00 +29°C° 0 mm 3 mps 754 mmHg 23%
    21:00 +28°C° 0 mm 3 mps 754 mmHg 24%
    22:00 +27°C° 0 mm 2 mps 754 mmHg 26%
    23:00 +26°C° 0 mm 2 mps 754 mmHg 27%

    Day after tomorrow, 24 February, Sunday

    Time Temperature Precipitation Wind Pressure Humidity
    00:00 +26°C° 0 mm 2 mps 754 mmHg 28%
    01:00 +25°C° 0 mm 2 mps 753 mmHg 29%
    02:00 +25°C° 0 mm 2 mps 753 mmHg 30%
    03:00 +24°C° 0 mm 2 mps 753 mmHg 32%
    04:00 +24°C° 0 mm 2 mps 753 mmHg 34%
    05:00 +23°C° 0 mm 2 mps 753 mmHg 36%
    06:00 +24°C° 0 mm 3 mps 753 mmHg 35%
    07:00 +24°C° 0 mm 3 mps 754 mmHg 34%
    08:00 +25°C° 0 mm 3 mps 755 mmHg 34%
    09:00 +27°C° 0 mm 3 mps 755 mmHg 29%
    10:00 +30°C° 0 mm 3 mps 755 mmHg 25%
    11:00 +32°C° 0 mm 2 mps 755 mmHg 21%
    12:00 +34°C° 0 mm 2 mps 754 mmHg 19%
    13:00 +35°C° 0 mm 2 mps 753 mmHg 17%
    14:00 +35°C° 0 mm 2 mps 752 mmHg 15%
    15:00 +35°C° 0 mm 2 mps 752 mmHg 14%
    16:00 +35°C° 0 mm 3 mps 752 mmHg 14%
    17:00 +35°C° 0 mm 3 mps 751 mmHg 13%
    18:00 +33°C° 0 mm 4 mps 752 mmHg 14%
    19:00 +30°C° 0 mm 4 mps 753 mmHg 15%
    20:00 +28°C° 0 mm 4 mps 753 mmHg 15%
    21:00 +27°C° 0 mm 4 mps 753 mmHg 16%
    22:00 +26°C° 0 mm 3 mps 754 mmHg 17%
    23:00 +25°C° 0 mm 3 mps 754 mmHg 18%

    25 February, Monday

    Time Temperature Precipitation Wind Pressure Humidity
    00:00 +25°C° 0 mm 3 mps 753 mmHg 19%
    01:00 +25°C° 0 mm 3 mps 753 mmHg 19%
    02:00 +24°C° 0 mm 3 mps 753 mmHg 20%
    03:00 +24°C° 0 mm 3 mps 753 mmHg 22%
    04:00 +22°C° 0 mm 3 mps 753 mmHg 24%
    05:00 +21°C° 0 mm 3 mps 753 mmHg 26%
    06:00 +22°C° 0 mm 3 mps 753 mmHg 29%
    07:00 +23°C° 0 mm 2 mps 754 mmHg 31%
    08:00 +24°C° 0 mm 2 mps 755 mmHg 34%
    09:00 +26°C° 0 mm 3 mps 755 mmHg 31%
    10:00 +29°C° 0 mm 3 mps 754 mmHg 28%
    11:00 +31°C° 0 mm 3 mps 754 mmHg 25%
    12:00 +33°C° 0 mm 4 mps 753 mmHg 23%
    13:00 +35°C° 0 mm 5 mps 752 mmHg 21%
    14:00 +36°C° 0 mm 5 mps 751 mmHg 19%
    15:00 +35°C° 0 mm 6 mps 751 mmHg 20%
    16:00 +34°C° 0 mm 6 mps 751 mmHg 21%
    17:00 +34°C° 0 mm 7 mps 750 mmHg 22%
    18:00 +32°C° 0 mm 5 mps 751 mmHg 24%
    19:00 +29°C° 0 mm 4 mps 751 mmHg 26%
    20:00 +28°C° 0 mm 3 mps 752 mmHg 29%
    21:00 +27°C° 0 mm 3 mps 752 mmHg 30%
    22:00 +26°C° 0 mm 3 mps 752 mmHg 32%
    23:00 +26°C° 0 mm 3 mps 752 mmHg 34%

    26 February, Tuesday

    Time Temperature Precipitation Wind Pressure Humidity
    00:00 +25°C° 0 mm 2 mps 752 mmHg 35%
    01:00 +25°C° 0 mm 2 mps 751 mmHg 37%
    02:00 +25°C° 0 mm 2 mps 751 mmHg 39%
    03:00 +24°C° 0 mm 2 mps 751 mmHg 43%
    04:00 +24°C° 0 mm 2 mps 751 mmHg 47%
    05:00 +22°C° 0 mm 3 mps 751 mmHg 52%
    06:00 +22°C° 0 mm 3 mps 751 mmHg 53%
    07:00 +22°C° 0 mm 3 mps 752 mmHg 54%
    08:00 +24°C° 0 mm 3 mps 753 mmHg 56%
    09:00 +26°C° 0 mm 4 mps 752 mmHg 48%
    10:00 +28°C° 0 mm 5 mps 752 mmHg 40%
    11:00 +30°C° 0 mm 7 mps 752 mmHg 32%
    12:00 +30°C° 0 mm 7 mps 751 mmHg 31%
    13:00 +30°C° 0 mm 7 mps 750 mmHg 29%
    14:00 +30°C° 0 mm 7 mps 749 mmHg 28%
    15:00 +30°C° 0 mm 7 mps 749 mmHg 27%
    16:00 +30°C° 0 mm 7 mps 749 mmHg 26%
    17:00 +32°C° 0 mm 8 mps 748 mmHg 25%
    18:00 +29°C° 0 mm 7 mps 749 mmHg 28%
    19:00 +27°C° 0 mm 6 mps 749 mmHg 32%
    20:00 +25°C° 0 mm 5 mps 750 mmHg 35%
    21:00 +25°C° 0 mm 5 mps 750 mmHg 37%
    22:00 +23°C° 0 mm 5 mps 750 mmHg 39%
    23:00 +22°C° 0 mm 4 mps 751 mmHg 41%

    27 February, Wednesday

    Time Temperature Precipitation Wind Pressure Humidity
    00:00 +21°C° 0 mm 4 mps 751 mmHg 40%
    01:00 +20°C° 0 mm 4 mps 751 mmHg 39%
    02:00 +19°C° 0 mm 4 mps 751 mmHg 38%
    03:00 +18°C° 0 mm 3 mps 751 mmHg 39%
    04:00 +17°C° 0 mm 2 mps 751 mmHg 39%
    05:00 +17°C° 0 mm 2 mps 751 mmHg 40%
    06:00 +18°C° 0 mm 1 mps 752 mmHg 38%
    07:00 +19°C° 0 mm 1 mps 753 mmHg 36%
    08:00 +18°C° 0 mm 0 mps 754 mmHg 34%
    09:00 +23°C° 0 mm 1 mps 754 mmHg 31%
    10:00 +25°C° 0 mm 2 mps 754 mmHg 27%
    11:00 +27°C° 0 mm 3 mps 754 mmHg 24%
    12:00 +29°C° 0 mm 4 mps 754 mmHg 21%
    13:00 +30°C° 0 mm 5 mps 753 mmHg 17%
    14:00 +32°C° 0 mm 5 mps 752 mmHg 14%
    15:00 +32°C° 0 mm 5 mps 752 mmHg 13%
    16:00 +30°C° 0 mm 6 mps 752 mmHg 13%
    17:00 +30°C° 0 mm 6 mps 752 mmHg 13%
    18:00 +27°C° 0 mm 5 mps 752 mmHg 16%
    19:00 +25°C° 0 mm 4 mps 753 mmHg 18%
    20:00 +22°C° 0 mm 3 mps 753 mmHg 20%
    21:00 +21°C° 0 mm 3 mps 754 mmHg 21%
    22:00 +21°C° 0 mm 2 mps 754 mmHg 22%
    23:00 +20°C° 0 mm 2 mps 755 mmHg 22%
    Show more